User: anonymous   Login
Location: Drayton Valley
(53.2170°N, 114.9830°W)
Time: 03:04:50
(UTC-07:00)
Language:

MOZ.5/SAFIR/RUBIN 5/SL-8 - Orbit

View from above orbital plane
View from above orbital plane
View from above satellite
View from above satellite

Ground track
Ground track

The orbit data is extracted from the following two-line orbital elements,

1 28898U 05043G   16038.52464439  .00000224  00000-0  55701-4 0  9992
2 28898  97.8625 205.8037 0018772 309.0759  50.8772 14.60047726547504
Epoch (UTC): 07 February 2016 12:35:29
Eccentricity: 0.0018772
inclination: 97.8625°
perigee height: 680 km
apogee height: 706 km
right ascension of ascending node: 205.8037°
argument of perigee: 309.0759°
revolutions per day: 14.60047726
mean anomaly at epoch: 50.8772°
orbit number at epoch: 54750

The dashed part of the orbit path shows where the satellite is in the earth's shadow,  

DLR